Flag for U.S.A. Weather past 2 weeks in Concord, California, U.S.A.

Now
82 °F

Sunny.


Feels Like: 81 °F
Forecast: 62 / 86 °F
Wind: 10 mph from West

Location: Buchanan Field

Current Time: Jul 30, 2015 at 8:21:45 PM

Latest Report: Jul 30, 2015 at 7:53 PM


Visibility: 10 mi

Pressure: 29.89 "Hg

Humidity: 37%

Dew point: 53 °F

Location of ConcordLocation

Historic Weather in Concord — Graph

°F

Concord temperature yesterday

Maximum temperature yesterday: 102 °F (at 3:53 PM)
Minimum temperature yesterday: 65 °F (at 4:53 AM)
Average temperature yesterday: 81 °F

Past Weeks' High & Low Weather Summary

 TemperatureHumidityPressure
High102 °F (Jul 28, 4:53 PM)83% (Jul 16, 4:53 AM)30.06 "Hg (Jul 16, 4:53 AM)
Low60 °F (Jul 17, 5:53 AM)12% (Jul 28, 1:53 PM)29.70 "Hg (Jul 17, 5:53 PM)
Average74 °F52%29.87 "Hg
* Reported Jul 15 6:53 PM — Jul 30 6:53 PM, Concord, Weather by CustomWeather, © 2015

Note: Actual official high and low records may vary slightly from our data, if they occured in-between our weather recording intervals... More about our weather records

Advertising

Concord weather history for previous 24 hours

 ConditionsComfort  
Time TempWeatherWind HumidityBarometerVisibility
6:53 PM
Thu, Jul 30
86 °FSunny.13 mph33%29.87 "Hg10 mi
5:53 PM90 °FSunny.12 mph31%29.87 "Hg10 mi
4:53 PM91 °FSunny.9 mph31%29.87 "Hg10 mi
3:53 PM93 °FSunny.14 mph27%29.88 "Hg10 mi
2:53 PM92 °FSunny.15 mph28%29.90 "Hg10 mi
1:53 PM90 °FSunny.15 mph29%29.92 "Hg10 mi
12:53 PM86 °FSunny.12 mph33%29.94 "Hg10 mi
11:53 AM81 °FSunny.14 mph39%29.96 "Hg10 mi
10:53 AM78 °FSunny.12 mph46%29.97 "Hg10 mi
9:53 AM73 °FScattered clouds.7 mph57%29.97 "Hg10 mi
8:53 AM69 °FScattered clouds.9 mph66%29.97 "Hg10 mi
7:53 AM65 °FScattered clouds.7 mph76%29.96 "Hg10 mi
6:53 AM63 °FPassing clouds.8 mph78%29.95 "Hg10 mi
5:53 AM63 °FClear.12 mph78%29.93 "Hg10 mi
4:53 AM63 °FClear.9 mph78%29.90 "Hg10 mi
3:53 AM63 °FClear.6 mph78%29.90 "Hg10 mi
2:53 AM64 °FClear.12 mph73%29.90 "Hg10 mi
1:53 AM66 °FClear.7 mph63%29.89 "Hg10 mi
12:53 AM67 °FClear.6 mph61%29.89 "Hg10 mi
11:53 PM
Wed, Jul 29
67 °FClear.7 mph68%29.88 "Hg10 mi
10:53 PM68 °FClear.5 mph65%29.88 "Hg10 mi
9:53 PM77 °FClear.7 mph39%29.87 "Hg10 mi
8:53 PM80 °FSunny.12 mph32%29.84 "Hg10 mi
Weather by CustomWeather, © 2015

See weather overviewHow to use our weather pages